User: anonymous   Login
Location: Bishop�s Knoyle
(51.0728°N, 2.1714°W)
Time: 02:46:06
(UTC+00:00)
Language:

NOSS 3-4 (C) - Orbit

View from above orbital plane
View from above orbital plane
View from above satellite
View from above satellite

Ground track
Ground track

The orbit data is extracted from the following two-line orbital elements,

1 31708U 07027C   20311.70799685 0.00000000  00000-0  00000-0 0    06
2 31708  63.3984 164.1301 0293455  19.5366 340.4634 13.40808524    07
Epoch (UTC): 06 November 2020 16:59:30
Eccentricity: 0.0293455
inclination: 63.3984°
perigee height: 886 km
apogee height: 1326 km
right ascension of ascending node: 164.1301°
argument of perigee: 19.5366°
revolutions per day: 13.40808524
mean anomaly at epoch: 340.4634°
orbit number at epoch: 0

The dashed part of the orbit path shows where the satellite is in the earth's shadow,  

DLR